{"data":{"norad_id":59270,"epoch":"2026-05-25T02:18:34.565760Z","epoch_age_seconds":63851,"freshness":"FRESH","line1":"1 59270U 24050S   26145.09623340  .00000113  00000+0  15934-4 0  9999","line2":"2 59270  53.1600 186.3104 0001063  92.3206 267.7916 15.30188995122243","mean_motion":15.30188995,"eccentricity":0.0001063,"inclination_deg":53.16,"raan_deg":186.3104,"arg_perigee_deg":92.3206,"mean_anomaly_deg":267.7916,"bstar":1.5934e-5,"rev_number":12224,"period_min":94.106022504756,"perigee_km":474.51941374469,"apogee_km":475.9764433805,"semimajor_km":6853.3849285626,"source":"CELESTRAK","updated_at":"2026-05-25T13:38:18.877110Z"}}